Home > Weather > Mostar > Past weeks

Flag for Bosnia-Herzegovina Weather for the Past 2 Weeks in Mostar, Bosnia-Herzegovina

Now
48 °F

Light rain. More clouds than sun.


Feels Like: 46 °F
Forecast: 37 / 49 °F
Wind: 6 mph from Southeast

Location: Mostar

Current Time: Feb 10, 2016 at 4:51:11 PM

Latest Report: Feb 10, 2016 at 4:00 PM


Visibility: N/A

Pressure: 29.47 "Hg

Humidity: 82%

Dew point: 43 °F

Location of MostarLocation

Historic Weather in Mostar — Graph

°F

Mostar Temperature Yesterday

Maximum temperature yesterday: 63 °F (at 2:00 PM)
Minimum temperature yesterday: 48 °F (at 6:00 AM)
Average temperature yesterday: 55 °F

High & Low Weather Summary for the Past Weeks

 TemperatureHumidityPressure
High64 °F (Feb 1, 2:00 PM)100% (Jan 27, 7:00 AM)30.48 "Hg (Jan 27, 7:00 AM)
Low25 °F (Feb 6, 5:00 AM)29% (Feb 4, 11:00 PM)29.39 "Hg (Feb 10, 8:30 AM)
Average48 °F76%30.18 "Hg
* Reported Jan 26 3:00 PM — Feb 10 3:00 PM, Mostar, Weather by CustomWeather, © 2016

Note: Actual official high and low records may vary slightly from our data, if they occured in-between our weather recording intervals... More about our weather records

Advertising

Mostar Weather History for the Previous 24 Hours

 ConditionsComfort  
Time TempWeatherWind HumidityBarometerVisibility
3:00 PM
Wed, Feb 10
48 °FLight rain. Mostly cloudy.3 mph76%29.45 "HgN/A
2:00 PM52 °FLight rain. Mostly cloudy.12 mph67%29.45 "HgN/A
1:00 PM55 °FLight rain. Scattered clouds.2 mph63%29.39 "HgN/A
12:00 PM52 °FBroken clouds.7 mph77%29.42 "HgN/A
11:30 AM54 °FLight rain. Broken clouds.15 mph72%29.42 "HgN/A
11:00 AM57 °FBroken clouds.5 mph77%29.42 "HgN/A
10:30 AM57 °FBroken clouds.16 mph72%29.39 "HgN/A
10:00 AM55 °FMore clouds than sun.14 mph82%29.39 "HgN/A
9:30 AM54 °FMore clouds than sun.15 mph88%29.39 "HgN/A
9:00 AM54 °FHeavy rain. More clouds than sun.20 mph88%29.39 "Hg2 mi
8:30 AM54 °FRain. More clouds than sun.25 mph82%29.39 "Hg5 mi
8:00 AM52 °FRain. Fog.25 mph88%29.42 "Hg3 mi
7:30 AM54 °FLight rain. Broken clouds.28 mph77%29.42 "Hg5 mi
7:00 AM54 °FLight rain. Broken clouds.20 mph82%29.45 "HgN/A
6:30 AM52 °FRain. Partly cloudy.15 mph88%29.47 "HgN/A
6:00 AM54 °FRain. Partly cloudy.15 mph82%29.47 "Hg6 mi
5:00 AM54 °FRain. Partly cloudy.20 mph82%29.50 "Hg6 mi
4:00 AM55 °FLight rain. Partly cloudy.23 mph67%29.56 "HgN/A
3:00 AM57 °FPartly cloudy.20 mph59%29.62 "HgN/A
2:00 AM57 °FPartly cloudy.13 mph63%29.65 "HgN/A
1:00 AM57 °FLight rain. Partly cloudy.16 mph67%29.71 "HgN/A
12:00 AM57 °FPassing clouds.10 mph63%29.74 "HgN/A
11:00 PM
Tue, Feb 9
57 °FPartly cloudy.10 mph63%29.80 "HgN/A
10:00 PM57 °FPassing clouds.12 mph59%29.83 "HgN/A
9:00 PM55 °FPartly cloudy.6 mph63%29.86 "HgN/A
8:00 PM55 °FPartly cloudy.9 mph63%29.89 "HgN/A
7:00 PM55 °FPassing clouds.9 mph63%29.92 "HgN/A
6:00 PM55 °FPassing clouds.9 mph67%29.95 "HgN/A
5:00 PM57 °FScattered clouds.12 mph63%29.95 "HgN/A
4:00 PM59 °FScattered clouds.13 mph59%29.98 "HgN/A
Weather by CustomWeather, © 2016

See weather overviewHow to use our weather pages